Location: Garshuizen
(53.3675°N, 6.7248°E)
Time: 20:14:10
(UTC+00:00)

COSMOS 2428 - Pass Details

Date: 15 May 2026
Orbit: 844 x 855 km, 70.9° (Epoch: 6 June)

Event Time Altitude Azimuth Distance (km) Brightness Sun altitude
Rises 22:48:49 0° 326° (NW) 3,427 7.1 -17.1°
Reaches altitude 10° 22:51:19 10° 321° (NW) 2,485 6.1 -17.1°
Maximum altitude 22:56:49 51° 247° (WSW) 1,056 3.1 -17.2°
Enters shadow 22:59:33 28° 186° (S) 1,537 3.5 -17.3°
